SL-14 DEB

Satellite information

Favourite Embed

Satellite Type and Status

DEBRISIN ORBIT

Key statistics

Satellite SL-14 DEB at a glance.

Uptime

12539

Days in orbit

Revolutions

≈ 13.6

Per day

Orbit

LEO

Low Earth Orbit

Inclination

82.6

Latest

Satellite identification and parameters

Extended collection of information and parameters for SL-14 DEB.

Object identification

Identified? True

Debris? True

Object name: SL-14 DEB

International designator: 1991-056AL

Object number (NORAD): 45298

Object ID (CCSDS): 45298

Country: COMMONWEALTH OF INDEPENDENT STATES (CIS)

Current information (Y/N): Y

RCS size: MEDIUM

Orbital parameters

Period: 105.538 minutes

Inclination: 82.596 deg

SMA: 7397.739 km

Apoapsis: 1142.142 km

Periapsis: 897.067 km

RAAN: 178.1086 deg

Eccentricy: 0.0165642

Argument of periapsis: 201.1272 deg

Mean anomaly: 158.2983 deg

Mean motion: 13.64439342 rev/day

Mean motion (dot): 0.00005596 rev/day2

B* drag term: 0.0063459 1/REarth

Two-line elements (TLE)

Creation date: Dec. 12, 2025, 7:16 a.m.

Reference frame: TEME

Reference center: EARTH

Epoch: Dec. 11, 2025, 10:56 p.m. UTC

TLE line 0: 0 SL-14 DEB

TLE line 1: 1 45298U 91056AL 25345.95582788 .00005596 00000-0 63459-2 0 9994

TLE line 2: 2 45298 82.5960 178.1086 0165642 201.1272 158.2983 13.64439342286382

Live tracking on map

Real-time ground track for satellite SL-14 DEB.

In-orbit conjunctions

A list of the most updated potential collisions computed for object SL-14 DEB.

Target Orbit TCA Probability of collision Miss distance Type
IRS 1A SSO 2025-05-03 17:14:04 0.0001982747 161.0 (m) PAYLOAD

Associated space launch

Third generation meteorological satellite

SL-14 DEB was lifted into orbit during the mission ‘Tsiklon-3 | Meteor-3 5’, on board a Tsiklon-3 space rocket.

The launch took place on Aug. 15, 1991, 9:15 a.m. from 32/2.

For more information about the launch, click the button.

Launch to space Tsiklon-3 | Meteor-3 5
Tsiklon-3 | Meteor-3 5

Agency: N/A

Status: Launch Successful

Launch date: Aug. 15, 1991, 9:15 a.m. UTC

Rocket: Tsiklon-3

Launch pad: 32/2

Location: Plesetsk Cosmodrome, Russian Federation

...

Latest news about this satellite

There are no fresh news available about this satellite. Check back as we update our databases every day.


Newsletter sign-up

Weekly statistics, charts and insights to help you stay on top of the space industry.